Theta_e
321 321 321 321 321 322 322 322 322 321 322 322 321 320 320 320 318 307 298 301 310 319 317 306 304 303 306 307 309 307 298 295 297 297 299 303 303 304 304 306 307 310 311 314 321
320 321 321 322 321 321 322 322 322 321 321 321 321 318 318 318 310 303 307 312 315 316 304 302 300 302 303 304 306 303 297 297 301 301 300 301 301 302 302 303 305 305 308 311 319
321 320 319 319 320 320 320 321 321 321 320 320 321 318 318 316 302 300 310 312 313 312 305 304 302 300 299 303 302 302 297 299 299 300 300 300 300 301 301 300 305 304 305 308 314
318 317 317 318 319 319 320 320 321 320 320 320 321 318 318 309 294 301 310 311 314 309 303 302 300 298 297 297 300 296 299 299 300 300 299 299 300 300 301 304 304 304 303 304 308
316 316 316 316 318 319 320 320 320 320 321 321 320 318 308 299 298 302 310 306 305 303 301 300 298 297 295 295 297 297 297 297 298 297 297 297 298 298 298 303 303 301 300 302 303
314 313 313 314 315 315 316 318 319 320 320 320 318 316 304 295 301 301 301 302 302 302 300 301 298 299 296 295 295 295 295 296 296 296 296 294 296 294 297 298 297 297 299 300 302
312 311 312 312 313 314 315 316 318 319 319 319 314 308 300 300 301 302 302 302 302 302 299 301 302 299 297 294 296 294 292 294 293 293 293 293 292 291 298 296 296 296 297 298 299
309 310 310 311 311 312 313 316 318 317 318 314 311 303 298 301 303 300 302 300 303 303 302 303 302 299 296 296 293 291 291 291 291 292 292 292 294 295 295 295 296 297 298 298 299
309 309 310 310 311 312 313 316 315 312 312 312 303 299 297 303 297 299 300 298 301 301 301 300 299 295 294 291 290 290 291 289 291 291 291 291 294 296 294 294 296 298 298 298 299
309 309 309 309 310 311 314 314 312 308 305 303 299 296 297 294 297 298 299 300 298 299 297 296 294 292 291 290 290 290 287 288 290 290 290 290 291 297 295 295 297 297 297 296 297
308 308 309 309 309 309 311 306 306 304 302 299 297 296 295 297 298 296 298 297 296 294 292 292 290 289 292 292 292 292 290 290 291 289 289 292 292 295 298 295 296 297 295 294 295
306 307 308 309 308 311 306 297 296 296 292 301 300 297 297 297 293 295 298 294 293 291 291 290 289 295 291 291 289 290 290 290 290 288 288 291 289 294 295 294 294 293 293 293 293
305 306 307 308 307 308 303 299 302 297 291 297 298 296 295 296 295 295 295 293 292 290 289 291 292 290 291 287 287 288 288 288 289 287 287 287 290 293 292 292 290 291 292 292 293
304 305 305 307 303 301 302 304 302 298 289 292 292 293 293 294 293 294 295 294 290 290 289 289 290 288 288 287 289 287 289 288 286 288 287 286 287 293 292 290 289 290 291 292 292
302 303 304 304 299 297 302 305 303 299 279 290 290 296 292 292 290 290 294 292 289 288 289 290 286 286 287 288 289 287 287 287 285 285 284 284 285 292 288 288 289 290 291 292 293
301 302 303 300 299 300 305 304 302 286 279 288 288 287 287 288 288 289 289 292 290 287 286 287 288 287 288 285 286 288 287 286 286 285 280 284 286 289 290 291 290 290 290 291 292
303 301 300 299 294 303 305 301 285 278 290 287 286 286 285 285 285 286 285 285 286 282 283 285 285 287 287 285 287 287 285 282 279 278 280 281 280 289 290 290 291 290 290 292 293
302 300 298 298 302 305 302 291 277 283 284 288 287 285 286 286 285 284 283 283 285 284 283 282 281 284 287 287 285 284 286 286 279 280 283 278 279 287 289 289 290 292 292 292 292
300 296 296 299 303 304 293 280 280 283 288 287 288 283 285 284 288 283 283 283 285 285 282 281 280 285 285 286 287 283 281 286 279 270 279 285 285 289 288 287 288 289 290 291 291
294 292 292 298 300 300 287 280 284 287 289 289 283 287 284 284 283 283 285 289 285 286 289 286 281 283 284 287 286 284 287 280 282 277 276 281 280 288 284 285 287 288 290 291 291
292 286 294 297 301 291 279 281 283 289 289 286 285 284 285 285 283 283 286 287 286 285 287 290 287 282 284 282 282 281 281 282 284 283 280 279 284 290 290 288 287 289 291 291 291
290 279 293 298 283 285 279 283 287 286 289 287 288 286 285 285 284 283 282 285 288 286 283 286 285 282 282 283 283 284 284 283 281 279 282 281 285 288 288 289 289 289 290 292 292
284 283 293 294 277 278 281 281 283 283 283 284 283 286 287 284 281 284 285 288 287 285 285 285 282 278 279 280 282 282 284 284 285 284 282 279 284 287 287 288 290 290 291 290 291
283 277 283 287 286 280 278 278 278 283 283 284 283 286 283 281 284 282 283 287 287 287 289 287 282 281 278 280 283 278 281 283 284 280 282 283 287 287 285 287 289 290 291 291 290
284 280 282 275 278 278 279 278 276 276 281 282 279 279 279 278 279 279 282 283 286 288 287 286 279 279 279 280 281 280 280 281 282 284 281 286 286 289 287 287 289 291 291 290 289
280 280 282 278 279 277 278 276 276 277 278 277 278 280 280 277 278 276 279 280 280 285 283 283 279 276 276 276 278 279 282 281 281 283 284 283 281 288 288 288 289 289 289 288 289
288 287 282 277 276 275 275 275 276 278 280 280 280 278 277 279 282 282 282 283 283 281 281 280 279 275 275 275 274 274 278 281 282 283 282 279 284 288 286 286 288 288 290 289 289
Wind_Speed
13 14 14 13 14 15 16 15 15 15 16 16 17 14 13 12 13 3 3 1 3 6 3 2 2 2 2 3 1 1 3 4 3 6 3 1 3 2 1 4 3 4 1 4 7
11 14 16 17 16 15 15 16 16 17 17 17 17 15 12 10 3 4 3 2 3 3 2 5 5 5 4 3 2 4 3 4 0 2 2 1 3 2 4 5 7 5 5 4 9
16 17 17 18 18 16 15 15 14 16 17 18 16 14 11 8 3 2 1 3 2 2 2 2 2 1 2 3 4 3 4 2 2 3 2 2 4 3 5 7 10 7 6 8 10
15 17 19 20 18 18 17 16 15 16 17 17 16 13 10 2 3 3 3 3 1 4 2 4 3 4 3 5 3 4 4 3 1 1 2 3 2 5 10 7 3 2 1 3 8
16 16 18 18 21 21 20 19 17 15 15 16 14 10 4 3 4 2 3 2 2 3 2 3 4 4 4 3 4 5 2 3 2 4 5 4 9 9 11 13 7 5 6 8 9
18 18 18 18 18 19 21 22 21 18 15 15 9 7 3 5 3 2 2 1 1 2 2 3 4 2 3 2 5 1 3 5 3 3 4 5 5 1 1 3 5 2 5 7 12
21 20 20 21 22 22 22 22 19 18 17 11 3 1 3 9 0 1 2 2 2 1 3 1 3 2 5 3 1 1 5 5 6 3 4 2 8 12 6 4 5 3 3 4 4
23 22 21 22 24 25 25 25 20 16 9 4 2 2 6 2 1 1 2 3 2 3 3 3 1 5 0 3 2 2 2 4 4 4 2 5 6 3 3 6 7 2 4 5 4
23 23 24 24 24 25 26 24 18 5 3 2 1 2 6 2 3 2 1 4 4 3 4 3 2 2 4 4 3 3 5 6 3 2 2 8 7 3 6 3 8 8 7 7 9
22 24 26 26 26 27 28 23 5 2 2 1 1 3 2 2 1 2 2 3 2 4 4 2 2 3 3 7 7 7 6 5 6 3 3 6 17 11 10 11 12 10 9 7 8
24 25 26 27 28 28 15 6 4 2 2 5 2 5 2 1 0 0 0 4 3 1 5 2 5 11 17 14 2 2 4 7 3 2 3 11 15 22 10 12 14 10 7 6 7
25 27 28 28 29 19 5 5 2 4 12 10 11 8 4 3 2 4 4 6 6 7 6 3 12 13 3 7 7 7 9 8 4 3 4 10 17 22 16 13 8 6 6 6 5
25 25 27 29 27 4 5 6 5 1 7 7 4 3 1 8 5 6 10 4 6 9 12 14 2 3 9 7 9 10 12 6 5 2 3 7 16 13 4 6 4 4 4 5 6
26 27 27 30 3 8 3 8 4 4 6 5 2 1 1 1 4 2 2 2 4 9 7 9 3 7 8 8 11 12 9 7 5 4 5 2 8 8 6 8 6 5 6 6 8
26 28 25 15 7 5 6 9 6 3 7 5 2 2 1 1 2 2 1 0 6 7 7 4 7 9 11 7 12 1 4 6 2 3 3 6 6 4 3 10 11 7 6 8 10
27 27 27 7 5 3 9 9 2 2 10 1 2 1 2 1 1 1 1 1 2 3 4 4 1 3 1 4 1 12 8 6 3 2 7 9 9 14 9 10 11 9 8 9 11
26 27 16 5 5 10 8 4 2 6 5 2 1 3 2 2 2 4 5 8 7 6 9 4 9 4 3 7 5 5 9 3 5 6 9 4 7 17 2 5 10 15 13 12 12
28 26 9 3 7 8 4 1 8 1 5 3 2 3 4 3 1 2 2 7 11 5 3 7 6 12 10 6 8 14 9 6 11 7 4 1 10 6 2 3 6 12 13 13 12
24 7 3 6 8 4 2 6 6 4 5 6 4 5 4 2 4 3 6 5 5 16 10 6 4 2 2 2 4 8 11 2 5 2 3 6 6 11 6 5 9 14 14 14 13
8 5 3 11 9 3 3 7 5 2 5 2 7 5 5 1 7 6 4 4 3 11 6 1 4 1 3 2 2 5 5 5 3 7 9 6 5 7 11 13 14 16 17 16 14
5 5 1 12 4 2 5 6 6 5 7 6 7 9 11 5 6 4 3 3 4 1 5 10 9 4 4 10 12 5 6 5 3 4 4 3 5 2 8 14 18 18 18 17 15
3 4 4 8 1 2 3 4 6 5 10 11 10 12 16 15 10 5 5 5 6 1 5 5 2 6 7 1 2 3 9 8 5 6 5 2 6 1 3 11 13 14 14 15 14
7 4 3 3 4 2 5 10 15 18 14 6 10 12 5 6 8 12 10 2 3 2 1 1 4 5 4 3 2 7 14 12 12 3 12 9 7 5 1 10 11 13 12 11 12
4 5 3 1 3 7 9 11 6 10 13 8 16 15 13 12 12 7 6 4 1 2 2 2 4 7 12 5 4 6 9 15 14 7 9 13 10 1 5 13 12 10 10 11 11
1 3 2 6 5 15 18 16 17 13 9 14 8 14 12 6 7 4 5 8 10 12 5 5 7 5 6 5 3 3 5 14 19 24 11 16 20 12 10 17 17 10 10 11 9
2 3 2 8 10 13 15 17 17 18 17 17 13 14 12 8 11 11 13 10 5 3 6 3 10 3 7 3 7 6 9 12 20 20 21 19 17 5 3 6 7 10 9 9 10
2 3 3 7 9 10 11 14 12 18 10 15 19 12 16 18 7 13 15 14 14 14 13 5 4 5 18 6 5 7 18 15 12 11 19 17 16 10 7 11 14 11 14 15 12
Wind_Direction
4 4 0 358 351 347 346 347 346 345 344 342 338 331 323 327 314 187 219 68 277 303 292 277 208 147 156 115 111 223 240 229 199 186 112 150 219 141 357 257 204 191 261 76 140
359 360 354 351 346 342 340 340 340 341 340 338 337 331 326 332 282 220 138 268 281 299 202 197 174 170 131 124 148 227 235 223 113 162 182 180 235 184 226 211 227 215 182 143 169
19 8 356 350 347 342 338 334 331 331 332 332 332 332 330 323 266 153 241 305 277 196 141 161 152 200 152 169 175 171 246 160 202 235 253 250 236 210 214 220 234 208 183 182 185
25 11 0 353 348 342 338 334 330 327 326 326 327 327 322 266 278 184 317 293 222 160 167 147 157 173 180 199 164 218 229 242 272 175 218 237 306 246 226 243 84 157 204 223 210
21 14 2 357 350 344 339 332 324 319 315 320 321 324 321 289 274 99 335 342 109 149 158 172 169 172 205 178 162 231 227 201 243 263 264 278 255 268 259 252 244 238 243 241 240
16 10 1 353 349 341 333 328 322 316 311 314 306 321 284 271 111 20 333 58 69 155 137 169 186 174 123 182 224 132 262 264 263 229 251 261 253 245 150 74 150 216 246 239 240
9 6 359 352 348 341 332 323 317 311 307 303 254 227 245 265 300 82 79 57 11 238 151 155 137 171 147 159 111 32 292 265 225 225 231 240 242 230 238 235 258 273 260 243 254
7 356 358 352 346 338 331 321 317 306 290 259 143 221 255 148 184 112 139 99 75 33 70 96 119 102 75 126 109 223 249 258 126 182 171 230 262 142 143 171 169 262 279 259 248
5 356 355 350 344 335 327 315 312 294 222 160 214 218 258 154 182 138 252 159 123 86 74 92 67 96 148 179 216 206 250 216 235 192 197 220 273 145 177 214 269 289 287 266 260
0 356 352 349 346 336 326 313 295 261 138 154 104 257 171 213 138 144 101 132 128 127 116 90 81 166 165 189 212 198 218 226 247 153 204 226 259 250 210 277 278 288 281 265 256
0 352 349 343 340 335 334 335 341 217 359 276 278 280 238 77 274 124 46 128 125 142 193 91 209 211 216 214 259 144 211 236 210 128 259 244 264 273 263 264 268 270 255 255 261
359 356 348 339 334 332 345 52 44 324 302 268 254 251 221 181 207 210 169 190 183 198 134 169 236 236 91 202 205 227 248 244 269 154 248 283 271 275 272 258 256 245 240 241 219
353 349 348 338 325 32 11 33 336 206 272 290 235 234 196 183 229 194 183 162 204 192 200 223 182 149 191 175 196 224 227 222 252 152 234 291 271 241 202 209 210 217 246 235 207
353 347 344 339 34 338 56 341 337 275 284 260 193 37 41 186 222 44 215 240 192 225 186 243 180 180 183 211 202 241 213 212 180 196 248 292 289 262 215 215 220 205 208 187 165
349 344 339 347 307 327 335 324 316 241 287 56 88 332 30 277 85 84 4 197 227 178 181 193 174 190 217 223 188 223 135 156 144 179 335 176 261 213 181 230 216 196 183 168 161
348 340 336 337 296 290 321 315 251 272 244 168 111 135 165 222 108 93 113 43 6 185 240 276 35 220 164 85 218 140 108 81 90 128 247 172 214 258 205 223 184 171 172 162 159
343 337 333 320 324 328 323 296 235 229 355 318 327 182 179 192 211 209 182 183 198 177 216 204 216 160 170 126 130 199 164 164 214 197 248 121 205 259 219 192 183 170 166 161 159
340 334 333 291 309 312 285 175 228 208 271 347 314 271 230 146 125 187 237 241 225 228 167 205 222 180 173 226 188 196 209 212 236 218 239 92 230 246 261 143 159 166 159 155 159
339 339 343 356 338 310 231 212 230 211 322 330 285 246 242 167 193 200 230 232 244 196 210 210 235 138 200 175 171 176 218 84 100 81 267 200 249 258 191 174 175 168 164 165 162
333 338 300 338 336 284 242 245 245 271 329 277 272 244 298 197 208 196 215 177 233 209 261 346 254 168 137 194 207 242 140 174 203 218 230 210 266 248 198 190 177 175 176 168 163
348 345 328 335 306 253 241 257 304 316 341 283 278 278 264 256 225 252 248 207 206 152 187 204 220 124 133 210 192 172 196 229 266 234 257 267 227 183 232 187 181 178 177 172 173
11 326 4 334 334 304 255 288 317 312 328 307 287 276 263 272 278 245 257 263 356 89 183 222 259 242 210 44 317 230 223 189 216 214 246 352 269 111 295 182 173 174 175 177 179
335 286 346 322 303 288 293 294 305 300 291 286 290 300 322 286 269 244 232 210 197 248 277 100 228 229 211 186 193 207 223 235 225 341 221 210 252 14 119 172 174 170 177 174 169
336 317 306 357 305 288 301 298 303 334 325 326 304 281 293 278 269 291 333 323 239 201 237 80 265 246 252 299 122 202 208 206 192 203 219 232 238 189 168 182 184 190 180 172 180
330 292 319 300 332 324 308 298 294 298 289 293 288 301 304 300 323 314 354 355 321 317 231 195 247 249 259 254 250 235 212 204 207 224 220 246 242 255 209 197 201 191 179 181 187
265 300 348 298 305 311 302 294 282 287 281 283 281 308 317 299 293 306 318 320 283 354 343 325 253 178 268 232 241 240 232 219 223 236 241 260 262 268 314 202 195 203 193 195 203
205 233 259 281 288 284 281 290 306 316 288 299 290 305 304 301 318 315 297 282 277 283 291 265 283 205 248 170 171 242 229 224 220 216 223 235 250 229 219 210 214 210 211 210 209